• MPC Preparation (Info)

  • MPEC 2013-L43 : 2013 LK7

    The following Minor Planet Electronic Circular may be linked-to from your own Web pages, but must not otherwise be redistributed electronically.

    A form allowing access to any MPEC is at the bottom of this page.


    Read MPEC 2013-L42 Read MPEC 2013-L44


    M.P.E.C. 2013-L43                                Issued 2013 June  9, 21:22 UT
    
         The Minor Planet Electronic Circulars contain information on unusual
             minor planets and routine data on comets.  They are published
       on behalf of Commission 20 of the International Astronomical Union by the
              Minor Planet Center, Smithsonian Astrophysical Observatory,
                              Cambridge, MA 02138, U.S.A.
    
                 Prepared using the Tamkin Foundation Computer Network
    
                                  MPC@CFA.HARVARD.EDU
                URL https://www.minorplanetcenter.net/    ISSN 1523-6714
    
                                       2013 LK7
    
    Observations:
         K13L07K* C2013 06 06.18056 16 35 28.84 +13 38 43.2          19.7 VoEL043691
         K13L07K  C2013 06 06.19826 16 35 24.70 +13 37 17.1          19.9 VoEL043691
         K13L07K  C2013 06 06.21597 16 35 20.47 +13 35 50.2          19.8 VoEL043691
         K13L07K KC2013 06 06.24735 16 35 13.14 +13 33 17.4          18.8 RoEL043291
         K13L07K KC2013 06 06.24892 16 35 12.77 +13 33 09.7          18.7 RoEL043291
         K13L07K KC2013 06 06.25049 16 35 12.41 +13 33 02.2          18.8 RoEL043291
         K13L07K HC2013 06 06.43310 16 34 29.53 +13 18 06.1          18.8 RoEL043291
         K13L07K HC2013 06 06.43497 16 34 29.12 +13 17 56.5          19.3 RoEL043291
         K13L07K HC2013 06 06.43601 16 34 28.89 +13 17 51.9          19.3 RoEL043291
         K13L07K KC2013 06 06.54868 16 34 04.80 +13 09 19.8          18.9 VoEL043474
         K13L07K KC2013 06 06.55332 16 34 03.78 +13 08 57.2          18.8 VoEL043474
         K13L07K KC2013 06 06.55831 16 34 02.61 +13 08 34.6          18.9 VoEL043474
         K13L07K KC2013 06 06.90251 16 32 47.59 +12 39 46.4          19.6 VqEL043198
         K13L07K KC2013 06 06.90520 16 32 47.00 +12 39 32.5          19.5 VqEL043198
         K13L07K KC2013 06 06.90839 16 32 46.25 +12 39 17.6          19.5 VqEL043198
         K13L07K KC2013 06 06.90840 16 32 46.26 +12 39 17.5          19.4 VqEL043198
         K13L07K KC2013 06 06.91533 16 32 44.66 +12 38 43.8          19.4 VqEL043198
         K13L07K KC2013 06 06.91586 16 32 44.49 +12 38 40.7          19.5 VqEL043198
         K13L07K KC2013 06 06.92722 16 32 42.15 +12 37 44.2                qEL043J95
         K13L07K KC2013 06 06.92723 16 32 41.82 +12 37 47.2          19.0 RuEL043K57
         K13L07K KC2013 06 06.92724 16 32 41.81 +12 37 47.1          19.0 RuEL043K57
         K13L07K KC2013 06 06.92974 16 32 41.58 +12 37 31.8                qEL043J95
         K13L07K KC2013 06 06.93221 16 32 41.01 +12 37 19.9          19.1 RqEL043J95
         K13L07K KC2013 06 06.93637 16 32 39.73 +12 37 02.6          19.0 RuEL043K57
         K13L07K KC2013 06 06.95159 16 32 36.24 +12 35 48.5          19.0 RuEL043K57
         K13L07K KC2013 06 07.24251 16 31 33.43 +12 12 18.9          19.3 RoEL043291
         K13L07K KC2013 06 07.24498 16 31 32.87 +12 12 07.0          18.9 RoEL043291
         K13L07K KC2013 06 07.24744 16 31 32.31 +12 11 54.9          19.0 RoEL043291
         K13L07K KC2013 06 07.30206 16 31 19.40 +12 07 25.5          19.1 RqEL043H36
         K13L07K KC2013 06 07.30623 16 31 18.46 +12 07 05.0          19.1 RqEL043H36
         K13L07K KC2013 06 07.31040 16 31 17.51 +12 06 45.1          19.0 RqEL043H36
         K13L07K KC2013 06 07.91735 16 29 08.71 +11 17 40.9          19.0  tEL043204
         K13L07K KC2013 06 07.92366 16 29 07.31 +11 17 10.5                tEL043204
         K13L07K KC2013 06 07.93261 16 29 05.35 +11 16 27.3                tEL043204
         K13L07K  C2013 06 07.95348 16 29 00.48 +11 14 46.1          18.8 RoEL043461
         K13L07K KC2013 06 07.95368 16 29 00.61 +11 14 45.6          19.4 VqEL043595
         K13L07K  C2013 06 07.95723 16 28 59.65 +11 14 28.2          18.8 RoEL043461
         K13L07K KC2013 06 07.96164 16 28 58.83 +11 14 07.1                qEL043595
         K13L07K KC2013 06 07.96974 16 28 57.04 +11 13 27.7                qEL043595
         K13L07K KC2013 06 08.26663 16 27 55.26 +10 49 44.3          18.4 RoEL043291
         K13L07K KC2013 06 08.26801 16 27 54.95 +10 49 37.5          18.7 RoEL043291
         K13L07K KC2013 06 08.26940 16 27 54.65 +10 49 31.1          18.7 RoEL043291
         K13L07K KC2013 06 08.90932 16 25 42.92 +09 58 17.0          18.5 RqEL043104
         K13L07K KC2013 06 08.91503 16 25 41.79 +09 57 50.6          19.1 RqEL043104
         K13L07K KC2013 06 08.92335 16 25 39.96 +09 57 10.3          19.2 RqEL043104
         K13L07K KC2013 06 08.93659 16 25 36.94 +09 56 05.4          19.4 RoEL043461
         K13L07K KC2013 06 08.93885 16 25 36.44 +09 55 54.5          18.2 RoEL043461
         K13L07K KC2013 06 08.94113 16 25 35.99 +09 55 44.3          19.1 RoEL043461
         K13L07K  C2013 06 09.29525 16 24 24.45 +09 27 44.1          19.0 RtEL043H01
         K13L07K  C2013 06 09.30413 16 24 22.57 +09 27 01.8          18.9 RtEL043H01
         K13L07K  C2013 06 09.31091 16 24 21.14 +09 26 29.6          18.7 RtEL043H01
         K13L07K  C2013 06 09.31640 16 24 19.99 +09 26 03.5          18.6 RtEL043H01
    
    Observer details:
    104 San Marcello Pistoiese.  Observer P. Bacci.  Measurers P. Bacc, L. Tesi,
        G. Fagioli.  0.60-m f/4 reflector + CCD.
    198 Wildberg.  Observer R. Apitzsch.  0.35-m f/3.1 reflector + CCD.
    204 Schiaparelli Observatory.  Observer L. Buzzi.  0.60-m f/4.64 reflector
        + CCD.
    291 LPL/Spacewatch II.  Observer R. S. McMillan.  1.8-m f/2.7 reflector + CCD.
    461 University of Szeged, Piszkesteto Stn. (Konkoly).  Observer K. Sarneczky.
        0.60-m Schmidt + CCD.
    474 Mount John Observatory, Lake Tekapo.  Observers A. C. Gilmore,
        P. M. Kilmartin.  Measurer P. M. Kilmartin.  1.0-m f/7.7 reflector + CCD.
    595 Farra d'Isonzo.  Observers A. Bresan, E. Pettarin.  Measurer A. Bresan.
        0.61-m f/4.0 reflector + CCD.
    691 Steward Observatory, Kitt Peak.  Observer R. S. McMillan.  0.9-m f/3
        reflector + CCD.
    H01 Magdalena Ridge Observatory, Socorro.  Observers W. H. Ryan, E. V. Ryan.
        Measurer W. H. Ryan.  2.4-m f/8.9 reflector + CCD.
    H36 Sandlot Observatory, Scranton.  Observer G. Hug.  0.56-m reflector + CCD.
    J95 Great Shefford.  Observer P. Birtwhistle.  0.40-m f/6.0 Schmidt-Cassegrain
        + CCD.
    K57 Fiore Observatory.  Observer T. Pupat.  Measurers T. Pupat, V. Gonano.
        0.38-m f/4.4 Newtonian reflector + CCD.
    
    Orbital elements:
    2013 LK7                                                 Earth MOID = 0.2022 AU
    Epoch 2013 Apr. 18.0 TT = JDT 2456400.5                 MPC
    M  48.38494              (2000.0)            P               Q
    n   0.83085215     Peri.   33.53544     -0.54559961     -0.75345450
    a   1.1206076      Node    92.20835     +0.66533613     -0.65564628
    e   0.3472942      Incl.   21.54234     +0.50955756     +0.04933824
    P   1.19           H   20.4           G   0.15           U   7
    Residuals in seconds of arc
    130606 691  0.5-  0.1-    130606 J95  0.2+  0.2-    130607 461  0.0   0.5+
    130606 691  0.3-  0.2+    130606 K57  0.1+  0.0     130607 595  0.0   0.3-
    130606 691  1.2-  0.3-    130606 K57  0.1-  0.0     130607 595  0.1-  0.5-
    130606 291  0.1-  0.1+    130606 J95  0.2+  0.3-    130608 291  0.0   0.2+
    130606 291  0.1-  0.1+    130606 J95  0.1+  0.2-    130608 291  0.1-  0.1+
    130606 291  0.0   0.3+    130606 K57  0.1+  0.1-    130608 291  0.0   0.3+
    130606 291  0.2-  0.4+    130606 K57  0.0   0.0     130608 104  0.8-  0.3-
    130606 291  0.2+  0.0     130607 291  0.1-  0.1+    130608 104  0.5+  0.6+
    130606 291  0.3+  0.6+    130607 291  0.0   0.2+    130608 104  0.4-  0.0
    130606 474  0.8-  0.1-    130607 291  0.0   0.0     130608 461  0.0   0.0
    130606 474  0.0   0.0     130607 H36  0.1+  0.2-    130608 461  0.3-  0.1-
    130606 474  0.2-  1.9+    130607 H36  0.1+  0.4-    130608 461  0.2+  0.6+
    130606 198  0.4+  0.2+    130607 H36  0.0   0.0     130609 H01  0.1-  0.1+
    130606 198  0.8+  0.6-    130607 204  0.3-  0.3-    130609 H01  0.2-  0.0
    130606 198  0.5+  0.1+    130607 204  0.4-  0.3-    130609 H01  0.2-  0.0
    130606 198  0.6+  0.0     130607 204  0.2-  0.3-    130609 H01  0.1-  0.1+
    130606 198  0.4+  0.0     130607 461  0.1+  0.3+
    130606 198  0.3-  0.5-    130607 595  0.4+  0.2-
    
    Ephemeris:
    2013 LK7                 a,e,i = 1.12, 0.35, 22                  q = 0.7314
    Date    TT    R. A. (2000) Decl.     Delta      r     Elong.  Phase     V
    2013 05 10    18 48 57.6 +43 25 46   0.2802  1.0970   100.7    64.7    20.1
    ...
    2013 05 25    17 29 52.1 +29 45 57   0.2559  1.1801   125.6    44.3    19.5
    ...
    2013 06 02    16 52 16.6 +19 22 20   0.2606  1.2213   138.4    33.5    19.3
    ...
    2013 06 08    16 28 51.1 +11 11 24   0.2756  1.2506   144.9    27.8    19.3
    2013 06 09    16 25 24.4 +09 51 26   0.2791  1.2553   145.6    27.2    19.3
    2013 06 10    16 22 05.8 +08 32 30   0.2829  1.2601   146.1    26.7    19.4
    ...
    2013 06 16    16 05 02.7 +01 08 07   0.3111  1.2874   146.8    25.6    19.6
    ...
    2013 06 24    15 49 20.0 -07 07 41   0.3619  1.3216   142.4    28.0    20.0
    ...
    2013 07 09    15 37 08.3 -17 58 27   0.4866  1.3781   129.5    34.7    21.0
    
    A. U. Tomatic                (C) Copyright 2013 MPC           M.P.E.C. 2013-L43
    

    Read MPEC 2013-L42 Read MPEC 2013-L44


    MPEC number:

    Enter an MPEC number in one of the following forms:

    • 1997-B01 (the full form)
    • J97B01 (the packed version of the full form)
    • B01 (the abbreviated form)